(95924) = 2003 JT3

Discovered at Socorro on 2003-05-02 by LINEAR.

Orbit

Orbit type: Main Belt

Note: WebGL enabled browser required.

epoch2024-03-31.0
epoch JD2460400.5
perihelion date2024-03-15.97938
perihelion JD2460385.47938
argument of perihelion (°)144.16504
ascending node (°)120.64841
inclination (°)6.28819
eccentricity0.1748617
perihelion distance (AU)1.8816258
Tisserand w.r.t. Jupiter3.6
ΔV w.r.t. Earth (km/sec)8.7
semimajor axis (AU)2.2803762
mean anomaly (°)4.29914
mean daily motion (°/day)0.28621610
aphelion distance (AU)2.679
period (years)3.44
P-vector [x]-0.08736839
P-vector [y]-0.93758533
P-vector [z]-0.33660141
Q-vector [x]0.99170942
Q-vector [y]-0.04989933
Q-vector [z]-0.11841655
absolute magnitude15.79
phase slope0.15
uncertainty0
referenceMPEC 2024-E179
observations used1960
oppositions18
arc length (days)8854
first opposition used1999
last opposition used2023
residual rms (arc-secs)0.59
perturbers coarse indicatorM-v
perturbers precise indicator003Ek
first observation date used1999-01-16.0
last observation date used2023-04-14.0
computer nameMPCLINUX
JD of orbit computation2456966.787053
perihelion JD uncertainty (days)6.9077E-05
argument of perihelion uncertainty (°)5.2174E-05
ascending node uncertainty (°)4.9195E-05
inclination uncertainty (°)4.2634E-06
eccentricity uncertainty 3.6366E-08
perihelion distance uncertainty (AU)8.2069E-08
Minimum Orbit Intersection Distances (in AU)
for orbit epoch: 2460400.5, reference: E2024-E23
Mercury1.4212
Venus1.15804
Earth0.86972
Mars0.41835
Jupiter2.40454
Saturn6.36723
Uranus16.031
Neptune27.237

Observations

2002 total observations over interval: 1999 01 16.46292 – 2023 04 14.178231
These data are available for download (format description).

Date (UT) J2000 RA J2000 Dec Magn Location Ref
1999 01 16.46292 10 14 55.27 +13 50 58.6 20.1 V 691 – Steward Observatory, Kitt Peak-Spacewatch MPS 81583
1999 01 16.49769 10 14 54.22 +13 51 10.8 19.4 V 691 – Steward Observatory, Kitt Peak-Spacewatch MPS 81583
1999 01 16.53788 10 14 53.05 +13 51 25.4 20.0 V 691 – Steward Observatory, Kitt Peak-Spacewatch MPS 81583
1999 02 12.18774 09 53 52.37 +17 12 47.8 18.4 R 699 – Lowell Observatory-LONEOS MPS 81583
1999 02 12.21328 09 53 50.72 +17 13 02.6   699 – Lowell Observatory-LONEOS MPS 81583
1999 02 12.23883 09 53 49.19 +17 13 15.1   699 – Lowell Observatory-LONEOS MPS 81583
1999 02 13.35003 09 52 40.88 +17 22 19.8 18.8   704 – Lincoln Laboratory ETS, New Mexico MPS 81583
1999 02 13.36399 09 52 40.02 +17 22 26.2 19.0   704 – Lincoln Laboratory ETS, New Mexico MPS 81583
1999 02 13.37797 09 52 39.00 +17 22 31.0 19.2   704 – Lincoln Laboratory ETS, New Mexico MPS 81583
1999 02 13.39197 09 52 38.06 +17 22 40.1 19.2   704 – Lincoln Laboratory ETS, New Mexico MPS 81583
1999 02 13.40592 09 52 37.12 +17 22 47.1 19.9   704 – Lincoln Laboratory ETS, New Mexico MPS 81583
1999 02 24.21912 09 41 31.59 +18 46 22.6 18.5 R 699 – Lowell Observatory-LONEOS MPS 81583
1999 02 24.26157 09 41 28.88 +18 46 41.4   699 – Lowell Observatory-LONEOS MPS 81583
1999 02 24.30153 09 41 26.39 +18 46 58.4   699 – Lowell Observatory-LONEOS MPS 81583
2000 08 02.38206 23 44 57.84 -08 00 17.3 18.9   704 – Lincoln Laboratory ETS, New Mexico MPS 81583
2000 08 02.39644 23 44 57.74 -08 00 23.1 18.6   704 – Lincoln Laboratory ETS, New Mexico MPS 81583
2000 08 02.41070 23 44 57.58 -08 00 29.0 18.5   704 – Lincoln Laboratory ETS, New Mexico MPS 81583
2000 08 02.42495 23 44 57.44 -08 00 34.6 18.8   704 – Lincoln Laboratory ETS, New Mexico MPS 81583
2000 09 24.18764 23 07 54.90 -14 58 50.5 17.9 R 699 – Lowell Observatory-LONEOS MPS 81583
2000 09 24.21079 23 07 53.71 -14 58 56.7   699 – Lowell Observatory-LONEOS MPS 81583
2000 09 24.23408 23 07 52.59 -14 59 03.9   699 – Lowell Observatory-LONEOS MPS 81583
2000 09 24.25722 23 07 51.45 -14 59 10.4   699 – Lowell Observatory-LONEOS MPS 81583
2000 10 02.19448 23 02 32.28 -15 29 39.8 18.1   704 – Lincoln Laboratory ETS, New Mexico MPS 81583
2000 10 02.20473 23 02 31.97 -15 29 41.5 18.1 R 699 – Lowell Observatory-LONEOS MPS 81583
2000 10 02.21003 23 02 31.80 -15 29 42.8 18.2   704 – Lincoln Laboratory ETS, New Mexico MPS 81583
2000 10 02.22413 23 02 31.25 -15 29 45.6   699 – Lowell Observatory-LONEOS MPS 81583
2000 10 02.22617 23 02 31.19 -15 29 46.9 18.8   704 – Lincoln Laboratory ETS, New Mexico MPS 81583
2000 10 02.24207 23 02 30.62 -15 29 49.2 18.5   704 – Lincoln Laboratory ETS, New Mexico MPS 81583
2000 10 02.24352 23 02 30.56 -15 29 49.0   699 – Lowell Observatory-LONEOS MPS 81583
2000 10 02.25723 23 02 30.04 -15 29 51.5 18.8   704 – Lincoln Laboratory ETS, New Mexico MPS 81583
2000 10 02.26284 23 02 29.86 -15 29 51.9   699 – Lowell Observatory-LONEOS MPS 81583
2001 12 14.38633 06 52 01.87 +18 38 43.9 19.0   704 – Lincoln Laboratory ETS, New Mexico MPS 81583
2001 12 14.40153 06 52 00.99 +18 38 45.7 19.5   704 – Lincoln Laboratory ETS, New Mexico MPS 81583
2001 12 14.41673 06 52 00.09 +18 38 47.2 19.6   704 – Lincoln Laboratory ETS, New Mexico MPS 81583
2001 12 14.43194 06 51 59.16 +18 38 49.8 19.0   704 – Lincoln Laboratory ETS, New Mexico MPS 81583
2002 01 15.25169 06 17 35.67 +20 10 03.5 19.9   704 – Lincoln Laboratory ETS, New Mexico MPS 81583
2002 01 15.26687 06 17 34.75 +20 10 06.2 19.7   704 – Lincoln Laboratory ETS, New Mexico MPS 81583
2002 01 15.29723 06 17 32.94 +20 10 11.0 19.4   704 – Lincoln Laboratory ETS, New Mexico MPS 81583
2003 03 06.44547 16 02 34.56 -12 12 13.1 19.2   704 – Lincoln Laboratory ETS, New Mexico MPS 81583
2003 03 06.45910 16 02 35.52 -12 12 12.2 19.5   704 – Lincoln Laboratory ETS, New Mexico MPS 81583
2003 03 06.48740 16 02 37.64 -12 12 12.0 19.4   704 – Lincoln Laboratory ETS, New Mexico MPS 81583
2003 03 11.46123 16 08 34.40 -12 11 15.9 18.7   704 – Lincoln Laboratory ETS, New Mexico MPS 81583
2003 03 11.47476 16 08 35.29 -12 11 15.6 18.9   704 – Lincoln Laboratory ETS, New Mexico MPS 81583
2003 03 11.48820 16 08 36.23 -12 11 15.6 19.8   704 – Lincoln Laboratory ETS, New Mexico MPS 81583
2003 04 28.33306 16 30 31.69 -10 22 21.1 19.0   704 – Lincoln Laboratory ETS, New Mexico MPS 81583
2003 04 28.34498 16 30 31.44 -10 22 16.5 19.0   704 – Lincoln Laboratory ETS, New Mexico MPS 81583
2003 04 28.36894 16 30 30.70 -10 22 13.2 18.9   704 – Lincoln Laboratory ETS, New Mexico MPS 81583
2003 04 28.38086 16 30 30.35 -10 22 13.3 19.0   704 – Lincoln Laboratory ETS, New Mexico MPS 81583
2003 05 02.32252 16 28 51.02 -10 11 03.3 18.1   704 – Lincoln Laboratory ETS, New Mexico MPS 78549
2003 05 02.33432 16 28 50.65 -10 11 01.3 18.5   704 – Lincoln Laboratory ETS, New Mexico MPS 78549
2003 05 02.34604 16 28 50.25 -10 10 58.5 18.2   704 – Lincoln Laboratory ETS, New Mexico MPS 78549
2003 05 02.35793 16 28 49.85 -10 10 57.8 18.7   704 – Lincoln Laboratory ETS, New Mexico MPS 78549
2003 05 02.36974 16 28 49.49 -10 10 56.4 18.6   704 – Lincoln Laboratory ETS, New Mexico MPS 78549
2003 05 03.43641 16 28 17.31 -10 08 01.6 19.2   608 – Haleakala-AMOS MPS 78549
2003 05 03.44686 16 28 16.95 -10 07 58.5 18.6   608 – Haleakala-AMOS MPS 78549
2003 05 03.45772 16 28 16.59 -10 07 57.1 18.2   608 – Haleakala-AMOS MPS 78549
2003 05 05.32382 16 27 14.70 -10 03 10.9 17.3   704 – Lincoln Laboratory ETS, New Mexico MPS 78549
2003 05 05.32439 16 27 14.66 -10 03 09.6 18.0   704 – Lincoln Laboratory ETS, New Mexico MPS 78549
2003 05 05.33630 16 27 14.24 -10 03 08.9 17.4   704 – Lincoln Laboratory ETS, New Mexico MPS 78549
2003 05 05.33688 16 27 14.18 -10 03 08.3 18.0   704 – Lincoln Laboratory ETS, New Mexico MPS 78549
2003 05 05.34834 16 27 13.75 -10 03 07.9 18.0   704 – Lincoln Laboratory ETS, New Mexico MPS 78549
2003 05 05.34892 16 27 13.73 -10 03 05.8 18.5   704 – Lincoln Laboratory ETS, New Mexico MPS 78549
2003 05 05.36036 16 27 13.31 -10 03 05.4 17.9   704 – Lincoln Laboratory ETS, New Mexico MPS 78549
2003 05 05.36093 16 27 13.27 -10 03 04.3 18.4   704 – Lincoln Laboratory ETS, New Mexico MPS 78549
2003 05 05.37216 16 27 12.84 -10 03 03.8 18.2   704 – Lincoln Laboratory ETS, New Mexico MPS 78549
2003 05 05.37273 16 27 12.81 -10 03 02.4 18.4   704 – Lincoln Laboratory ETS, New Mexico MPS 78549
2003 05 13.46626 16 21 36.17 -09 45 52.0 18.3   608 – Haleakala-AMOS MPS 80275
2003 05 13.47669 16 21 35.64 -09 45 50.6 18.0   608 – Haleakala-AMOS MPS 80275
2003 05 13.48769 16 21 35.10 -09 45 50.2 18.7   608 – Haleakala-AMOS MPS 80275
2003 05 24.29049 16 12 05.32 -09 35 56.6 18.9 V 691 – Steward Observatory, Kitt Peak-Spacewatch MPS 80275
2003 05 24.31688 16 12 03.71 -09 35 57.0 18.0 V 691 – Steward Observatory, Kitt Peak-Spacewatch MPS 80275
2003 05 24.34375 16 12 02.11 -09 35 57.0 18.8 V 691 – Steward Observatory, Kitt Peak-Spacewatch MPS 80275
2003 06 01.27928 16 04 34.83 -09 40 56.8 17.9   704 – Lincoln Laboratory ETS, New Mexico MPS 80275
2003 06 01.29018 16 04 34.25 -09 40 58.1 18.4   704 – Lincoln Laboratory ETS, New Mexico MPS 80275
2003 06 01.30175 16 04 33.51 -09 40 58.6 18.1   704 – Lincoln Laboratory ETS, New Mexico MPS 80275
2003 06 01.31308 16 04 32.79 -09 40 59.4 17.8   704 – Lincoln Laboratory ETS, New Mexico MPS 80275
2003 06 01.32418 16 04 32.22 -09 41 00.3 18.1   704 – Lincoln Laboratory ETS, New Mexico MPS 80275
2003 06 04.30786 16 01 50.11 -09 45 56.7 17.5 V 291 – LPL/Spacewatch II MPS 80275
2003 06 04.31192 16 01 49.88 -09 45 57.2 17.5 V 291 – LPL/Spacewatch II MPS 80275
2003 06 04.31597 16 01 49.65 -09 45 57.7 17.5 V 291 – LPL/Spacewatch II MPS 80275
2003 06 26.22232 15 47 59.96 -11 12 44.7 17.4   704 – Lincoln Laboratory ETS, New Mexico MPS 81583
2003 06 26.23220 15 47 59.80 -11 12 48.8 18.7   704 – Lincoln Laboratory ETS, New Mexico MPS 81583
2003 06 26.25206 15 47 59.36 -11 12 55.7 18.6   704 – Lincoln Laboratory ETS, New Mexico MPS 81583
2003 06 26.26190 15 47 59.05 -11 12 59.0 18.3   704 – Lincoln Laboratory ETS, New Mexico MPS 81583
2003 07 01.36185 15 46 55.81 -11 44 23.2 19.0   608 – Haleakala-AMOS MPS 81907
2003 07 01.37277 15 46 55.67 -11 44 27.3 19.3   608 – Haleakala-AMOS MPS 81907
